カタログに戻る

DELTA 1 DEB

運用中SSO
NORAD 7850·DEBRIS·🇺🇸 United States

打ち上げ Jul 23, 1972 から Vandenberg Space Force Base

Loading…

次のパス (今後24時間)

TLE

最新Source: Space-Track

元期: Sep 14, 2026, 06:59 UTC

1 07850U 72058W   26257.29159135  .00002221  00000-0  38838-3 0  9999
2 07850  98.2862 212.3305 0151719 144.9916 216.1374 14.61635471633207

AllMySatでDELTA 1 DEBをリアルタイム追跡

Download on the App Store